When you browse on this site, cookies collect data to enhance your experience and personalize the content and advertising you see.
Visit our Privacy Policy to learn more. By continuing to use the site, you agree to this use of cookies and data.
  • In Latvia
  • List of Countries
  • For 7 days
  • Water Temperature
  • Satellite Maps
  • Weather Map
  • Weather Widgets
  • user-avatar
    Login

    Hourly Weather Chien

    Today, 21 March, Thursday

    Time Temperature Precipitation Wind Pressure Humidity
    00:00 +26°C° 0.4 mm 2 mps 739 mmHg 91%
    01:00 +26°C° 0.4 mm 1 mps 739 mmHg 92%
    02:00 +26°C° 0.4 mm 1 mps 738 mmHg 93%
    03:00 +26°C° 0 mm 1 mps 738 mmHg 93%
    04:00 +26°C° 0 mm 1 mps 738 mmHg 94%
    05:00 +26°C° 0 mm 1 mps 738 mmHg 94%
    06:00 +27°C° 0 mm 1 mps 739 mmHg 89%
    07:00 +28°C° 0 mm 1 mps 739 mmHg 83%
    08:00 +29°C° 0 mm 1 mps 740 mmHg 78%
    09:00 +32°C° 0 mm 1 mps 739 mmHg 67%
    10:00 +34°C° 0 mm 1 mps 739 mmHg 55%
    11:00 +37°C° 0 mm 1 mps 739 mmHg 44%
    12:00 +37°C° 0.1 mm 2 mps 738 mmHg 45%
    13:00 +37°C° 0.1 mm 2 mps 738 mmHg 46%
    14:00 +36°C° 0.1 mm 2 mps 737 mmHg 48%
    15:00 +35°C° 0 mm 2 mps 737 mmHg 52%
    16:00 +34°C° 0 mm 2 mps 737 mmHg 57%
    17:00 +33°C° 0 mm 3 mps 737 mmHg 61%
    18:00 +31°C° 0.2 mm 2 mps 737 mmHg 69%
    19:00 +29°C° 0.2 mm 2 mps 738 mmHg 77%
    20:00 +28°C° 0.2 mm 2 mps 739 mmHg 85%
    21:00 +27°C° 0.1 mm 2 mps 739 mmHg 86%
    22:00 +27°C° 0.1 mm 1 mps 739 mmHg 88%
    23:00 +27°C° 0.1 mm 1 mps 739 mmHg 89%

    Tomorrow, 22 March, Friday

    Time Temperature Precipitation Wind Pressure Humidity
    00:00 +27°C° 1.1 mm 1 mps 739 mmHg 90%
    01:00 +24°C° 1.1 mm 0 mps 739 mmHg 92%
    02:00 +24°C° 1.1 mm 0 mps 739 mmHg 93%
    03:00 +24°C° 0.1 mm 0 mps 739 mmHg 94%
    04:00 +24°C° 0.1 mm 0 mps 739 mmHg 94%
    05:00 +26°C° 0.1 mm 1 mps 739 mmHg 95%
    06:00 +27°C° 0 mm 1 mps 739 mmHg 90%
    07:00 +28°C° 0 mm 1 mps 740 mmHg 85%
    08:00 +29°C° 0 mm 1 mps 741 mmHg 80%
    09:00 +31°C° 0 mm 2 mps 740 mmHg 69%
    10:00 +34°C° 0 mm 2 mps 740 mmHg 58%
    11:00 +37°C° 0 mm 2 mps 740 mmHg 47%
    12:00 +36°C° 0 mm 1 mps 739 mmHg 44%
    13:00 +37°C° 0 mm 1 mps 738 mmHg 41%
    14:00 +39°C° 0 mm 1 mps 737 mmHg 37%
    15:00 +36°C° 0 mm 1 mps 737 mmHg 43%
    16:00 +35°C° 0 mm 1 mps 737 mmHg 48%
    17:00 +33°C° 0 mm 1 mps 737 mmHg 53%
    18:00 +32°C° 0.1 mm 1 mps 738 mmHg 61%
    19:00 +30°C° 0.1 mm 1 mps 739 mmHg 68%
    20:00 +29°C° 0.1 mm 1 mps 739 mmHg 76%
    21:00 +29°C° 0 mm 1 mps 739 mmHg 78%
    22:00 +28°C° 0 mm 1 mps 739 mmHg 79%
    23:00 +28°C° 0 mm 1 mps 739 mmHg 81%

    Day after tomorrow, 23 March, Saturday

    Time Temperature Precipitation Wind Pressure Humidity
    00:00 +28°C° 0 mm 1 mps 739 mmHg 83%
    01:00 +27°C° 0 mm 1 mps 738 mmHg 85%
    02:00 +27°C° 0 mm 1 mps 738 mmHg 88%
    03:00 +27°C° 0 mm 1 mps 738 mmHg 88%
    04:00 +26°C° 0 mm 1 mps 738 mmHg 89%
    05:00 +26°C° 0 mm 1 mps 738 mmHg 89%
    06:00 +28°C° 0 mm 1 mps 739 mmHg 84%
    07:00 +29°C° 0 mm 2 mps 739 mmHg 78%
    08:00 +30°C° 0 mm 2 mps 740 mmHg 73%
    09:00 +32°C° 0 mm 2 mps 740 mmHg 63%
    10:00 +36°C° 0 mm 2 mps 740 mmHg 54%
    11:00 +38°C° 0 mm 2 mps 739 mmHg 45%
    12:00 +37°C° 0.1 mm 1 mps 739 mmHg 45%
    13:00 +37°C° 0.1 mm 1 mps 738 mmHg 45%
    14:00 +36°C° 0.1 mm 1 mps 737 mmHg 45%
    15:00 +36°C° 0 mm 2 mps 737 mmHg 53%
    16:00 +34°C° 0 mm 2 mps 737 mmHg 61%
    17:00 +31°C° 0 mm 2 mps 737 mmHg 69%
    18:00 +30°C° 0.5 mm 2 mps 738 mmHg 75%
    19:00 +29°C° 0.5 mm 2 mps 738 mmHg 80%
    20:00 +28°C° 0.5 mm 1 mps 739 mmHg 86%
    21:00 +28°C° 0.1 mm 1 mps 739 mmHg 88%
    22:00 +27°C° 0.1 mm 2 mps 740 mmHg 90%
    23:00 +27°C° 0.1 mm 2 mps 740 mmHg 92%

    24 March, Sunday

    Time Temperature Precipitation Wind Pressure Humidity
    00:00 +27°C° 0 mm 2 mps 739 mmHg 92%
    01:00 +27°C° 0 mm 2 mps 739 mmHg 92%
    02:00 +26°C° 0 mm 1 mps 738 mmHg 92%
    03:00 +26°C° 0 mm 1 mps 738 mmHg 92%
    04:00 +26°C° 0 mm 1 mps 738 mmHg 92%
    05:00 +26°C° 0 mm 1 mps 739 mmHg 92%
    06:00 +27°C° 0 mm 1 mps 739 mmHg 86%
    07:00 +29°C° 0 mm 1 mps 740 mmHg 79%
    08:00 +30°C° 0 mm 1 mps 741 mmHg 72%
    09:00 +32°C° 0 mm 1 mps 740 mmHg 64%
    10:00 +35°C° 0 mm 2 mps 740 mmHg 55%
    11:00 +37°C° 0 mm 2 mps 740 mmHg 47%
    12:00 +37°C° 0.4 mm 2 mps 739 mmHg 48%
    13:00 +36°C° 0.4 mm 2 mps 738 mmHg 50%
    14:00 +36°C° 0.4 mm 2 mps 737 mmHg 52%
    15:00 +35°C° 0.1 mm 2 mps 737 mmHg 57%
    16:00 +34°C° 0.1 mm 2 mps 737 mmHg 61%
    17:00 +32°C° 0.1 mm 2 mps 737 mmHg 66%
    18:00 +31°C° 0.2 mm 2 mps 738 mmHg 70%
    19:00 +30°C° 0.2 mm 2 mps 739 mmHg 74%
    20:00 +29°C° 0.2 mm 2 mps 739 mmHg 78%
    21:00 +28°C° 0.1 mm 2 mps 739 mmHg 82%
    22:00 +28°C° 0.1 mm 1 mps 739 mmHg 85%
    23:00 +27°C° 0.1 mm 1 mps 739 mmHg 88%

    25 March, Monday

    Time Temperature Precipitation Wind Pressure Humidity
    00:00 +27°C° 0 mm 1 mps 739 mmHg 89%
    01:00 +27°C° 0 mm 1 mps 738 mmHg 90%
    02:00 +26°C° 0 mm 1 mps 738 mmHg 90%
    03:00 +26°C° 0 mm 1 mps 738 mmHg 92%
    04:00 +26°C° 0 mm 1 mps 738 mmHg 93%
    05:00 +26°C° 0 mm 1 mps 739 mmHg 94%
    06:00 +27°C° 0 mm 1 mps 739 mmHg 86%
    07:00 +29°C° 0 mm 1 mps 740 mmHg 79%
    08:00 +30°C° 0 mm 1 mps 740 mmHg 71%
    09:00 +32°C° 0.2 mm 1 mps 740 mmHg 64%
    10:00 +34°C° 0.2 mm 1 mps 740 mmHg 57%
    11:00 +36°C° 0.2 mm 1 mps 739 mmHg 50%
    12:00 +35°C° 1 mm 1 mps 738 mmHg 52%
    13:00 +35°C° 1 mm 1 mps 738 mmHg 55%
    14:00 +35°C° 1 mm 2 mps 737 mmHg 57%
    15:00 +34°C° 0.3 mm 2 mps 737 mmHg 64%
    16:00 +31°C° 0.3 mm 2 mps 737 mmHg 70%
    17:00 +30°C° 0.3 mm 2 mps 737 mmHg 77%
    18:00 +29°C° 0 mm 2 mps 738 mmHg 80%
    19:00 +29°C° 0 mm 2 mps 738 mmHg 82%
    20:00 +28°C° 0 mm 1 mps 739 mmHg 85%
    21:00 +28°C° 0 mm 1 mps 739 mmHg 85%
    22:00 +28°C° 0 mm 1 mps 739 mmHg 86%
    23:00 +27°C° 0 mm 1 mps 739 mmHg 87%

    26 March, Tuesday

    Time Temperature Precipitation Wind Pressure Humidity
    00:00 +27°C° 0 mm 1 mps 739 mmHg 88%
    01:00 +27°C° 0 mm 1 mps 738 mmHg 89%
    02:00 +26°C° 0 mm 1 mps 738 mmHg 91%
    03:00 +26°C° 0 mm 1 mps 738 mmHg 91%
    04:00 +26°C° 0 mm 1 mps 738 mmHg 92%
    05:00 +26°C° 0 mm 1 mps 739 mmHg 93%
    06:00 +27°C° 0 mm 1 mps 739 mmHg 87%
    07:00 +29°C° 0 mm 1 mps 740 mmHg 80%
    08:00 +30°C° 0 mm 1 mps 740 mmHg 74%
    09:00 +32°C° 0.1 mm 2 mps 740 mmHg 67%
    10:00 +35°C° 0.1 mm 2 mps 739 mmHg 60%
    11:00 +36°C° 0.1 mm 2 mps 739 mmHg 53%
    12:00 +36°C° 1 mm 2 mps 738 mmHg 54%
    13:00 +35°C° 1 mm 1 mps 738 mmHg 55%
    14:00 +35°C° 1 mm 1 mps 737 mmHg 56%
    15:00 +34°C° 0 mm 1 mps 737 mmHg 60%
    16:00 +34°C° 0 mm 2 mps 737 mmHg 64%
    17:00 +32°C° 0 mm 2 mps 737 mmHg 68%
    18:00 +31°C° 0 mm 2 mps 738 mmHg 73%
    19:00 +30°C° 0 mm 2 mps 739 mmHg 78%
    20:00 +29°C° 0 mm 2 mps 739 mmHg 83%
    21:00 +28°C° 0 mm 2 mps 739 mmHg 85%
    22:00 +28°C° 0 mm 1 mps 739 mmHg 87%
    23:00 +27°C° 0 mm 1 mps 739 mmHg 89%
    Show more